Torna al catalogo

STARLINK-30603

AttivoComunicazioniVLEO
NORAD 58080·PAYLOAD·🇺🇸 United States

Lanciato Oct 18, 2023 da Cape Canaveral Space Force Station

Loading…

Prossimi Passaggi (prossime 24 ore)

TLE

AggiornatoSource: CelesTrak SupGP

Epoca: Sep 15, 2026, 01:46 UTC

1 58080C 23160F   26258.07409722  .00026670  00000+0  96583-3 0  2589
2 58080  43.0007  88.3667 0001402 272.3756 297.9114 15.27570706    18

Traccia STARLINK-30603 in tempo reale con AllMySat

Download on the App Store